Regional Weather Roundup
Issued by NWS

Home | Current Version | Previous Version | Text Only | Print | Product List | Glossary Off
Versions: 1 2 3 4 5 6 7 8 9 10 11 12 13 14 15 16 17 18 19 20 21 22 23 24 25 26 27

000
ASUS45 KCYS 281910
RWRWY

WYOMING REGIONAL WEATHER ROUNDUP
NATIONAL WEATHER SERVICE CHEYENNE WY
100 PM MDT SUN AUG 28 2016

NOTE:  "FAIR" INDICATES FEW OR NO CLOUDS BELOW 12,000 FEET
WITH NO SIGNIFICANT WEATHER AND/OR OBSTRUCTIONS TO VISIBILITY.

WYZ001-282000-
YELLOWSTONE NATIONAL PARK

CITY           SKY/WX    TMP DP  RH WIND       PRES   REMARKS
LK YELLOWSTONE   N/A     69  39  33 VRB6      30.35F
W YELLOWSTONE  NOT AVBL

$$
WYZ002>013-054>058-071-098>099-282000-
NORTHERN WYOMING

CITY           SKY/WX    TMP DP  RH WIND       PRES   REMARKS
JACKSON        SUNNY     73  25  16 SW5       30.26F
CODY           FAIR      79  32  18 W10       30.12F
GREYBULL       FAIR      83  30  14 VRB3      30.05F
WORLAND        NOT AVBL
SHERIDAN       FAIR      88  30  12 CALM      30.03S
BUFFALO        FAIR      86  27  11 E10G20    30.10S
GILLETTE       FAIR      86  31  13 CALM      30.04F
HULETT         FAIR      86  32  14 SW9       30.05F
NEWCASTLE      FAIR      81  32  17 SE6       30.07F

$$
WYZ014>020-022>026-101>103-282000-
CENTRAL WYOMING

CITY           SKY/WX    TMP DP  RH WIND       PRES   REMARKS
BIG PINEY      FAIR      75  26  16 SE8       30.31F
PINEDALE       FAIR      72  27  18 NW3       30.32F
DUBOIS         FAIR      75  21  13 W13G23    30.28S
LANDER         FAIR      82  27  13 CALM      30.15F
RIVERTON       FAIR      82  25  12 VRB5      30.16F
CASPER         FAIR      83  29  14 SW12G20   30.14F
DOUGLAS        FAIR      86  28  12 NW9G20    30.13S

$$
WYZ021-027>030-104>119-282000-
SOUTHERN WYOMING

CITY           SKY/WX    TMP DP  RH WIND       PRES   REMARKS
EVANSTON       FAIR      76  25  15 VRB3      30.32F
FORT BRIDGER   FAIR      78  24  13 W8G16     30.34F
ROCK SPRINGS   FAIR      79  21  11 W16G28    30.29F
DIXON          FAIR      78  36  22 NW3G17    30.31F
RAWLINS        FAIR      79  26  14 W16       30.28F
SARATOGA       FAIR      77  27  15 W13G20    30.31S
LARAMIE        FAIR      76  25  15 VRB7      30.29F
CHEYENNE       FAIR      84  32  15 VRB6      30.21F
TORRINGTON     FAIR      89  25  10 N6        30.07F
PINE BLUFFS    FAIR      84  37  18 N5        30.16F

$$




USA.gov is the U.S. government's official web portal to all federal, state and local government web resources and services.